TimePDT,TemperatureF,Dew PointF,Humidity,Sea Level PressureIn,VisibilityMPH,Wind Direction,Wind SpeedMPH,Gust SpeedMPH,PrecipitationIn,Events,Conditions,WindDirDegrees,DateUTC
12:53 AM,30.9,24.1,76,30.38,10.0,Calm,Calm,-,N/A,,Clear,0,2013-04-18 07:53:00
1:53 AM,33.1,25.0,72,30.36,10.0,Calm,Calm,-,N/A,,Clear,0,2013-04-18 08:53:00
2:53 AM,30.9,25.0,79,30.36,10.0,Calm,Calm,-,N/A,,Clear,0,2013-04-18 09:53:00
3:53 AM,28.9,24.1,82,30.36,10.0,Calm,Calm,-,N/A,,Scattered Clouds,0,2013-04-18 10:53:00
4:53 AM,28.0,25.0,88,30.37,10.0,Calm,Calm,-,N/A,,Partly Cloudy,0,2013-04-18 11:53:00
5:53 AM,26.1,23.0,88,30.37,10.0,Calm,Calm,-,N/A,,Clear,0,2013-04-18 12:53:00
6:53 AM,25.0,23.0,92,30.40,10.0,Calm,Calm,-,N/A,,Clear,0,2013-04-18 13:53:00
7:53 AM,33.1,28.0,82,30.40,7.0,Calm,Calm,-,N/A,,Clear,0,2013-04-18 14:53:00
8:53 AM,39.9,28.9,65,30.39,10.0,Calm,Calm,-,N/A,,Clear,0,2013-04-18 15:53:00
9:53 AM,43.0,26.1,51,30.38,10.0,Calm,Calm,-,N/A,,Clear,0,2013-04-18 16:53:00
10:53 AM,46.9,28.0,48,30.39,10.0,Variable,3.5,-,N/A,,Clear,0,2013-04-18 17:53:00
11:53 AM,48.9,28.9,46,30.37,10.0,SSE,5.8,-,N/A,,Clear,150,2013-04-18 18:53:00
12:53 PM,52.0,30.0,43,30.35,10.0,SSE,5.8,-,N/A,,Clear,160,2013-04-18 19:53:00
1:53 PM,55.0,32.0,42,30.34,10.0,SSW,4.6,-,N/A,,Partly Cloudy,210,2013-04-18 20:53:00
2:53 PM,57.9,30.9,36,30.33,10.0,Variable,3.5,-,N/A,,Partly Cloudy,0,2013-04-18 21:53:00
3:53 PM,60.1,30.9,33,30.32,10.0,NW,8.1,19.6,N/A,,Scattered Clouds,310,2013-04-18 22:53:00
4:53 PM,61.0,30.9,32,30.29,10.0,NNW,8.1,-,N/A,,Scattered Clouds,330,2013-04-18 23:53:00
5:53 PM,59.0,30.9,35,30.30,10.0,NNW,11.5,-,N/A,,Clear,330,2013-04-19 00:53:00
6:53 PM,59.0,33.1,38,30.30,10.0,NW,10.4,-,N/A,,Scattered Clouds,320,2013-04-19 01:53:00
7:53 PM,53.1,37.0,55,30.30,10.0,NW,11.5,-,N/A,,Scattered Clouds,310,2013-04-19 02:53:00
8:53 PM,48.9,37.0,64,30.29,10.0,WNW,6.9,-,N/A,,Scattered Clouds,290,2013-04-19 03:53:00
9:53 PM,46.9,36.0,66,30.32,10.0,West,6.9,-,N/A,,Scattered Clouds,280,2013-04-19 04:53:00
10:53 PM,39.9,35.1,83,30.30,10.0,South,4.6,-,N/A,,Clear,180,2013-04-19 05:53:00
11:53 PM,39.9,34.0,79,30.30,10.0,Calm,Calm,-,N/A,,Clear,0,2013-04-19 06:53:00